Date String (YYYY-MM-DD hh:mm:ss) UTC,Instrument flags,Ambient pressure (hPa),Sample flow (lpm),Bypass flow (lpm),Sample temperature (°C),Ambient temperature (°C),ASC tube jacket temperature (°C),LED temperature (°C),Box temperature (°C),Sample RH (%),Span deviation,Mass concentration (μg/m³),Mass concentration (μg/m³),Mass concentration (μg/m³)
DateTimeUTC,F1_M11,P_M11,Q1_M11,Q2_M11,T1_M11,T2_M11,T3_M11,T4_M11,T5_M11,U1_M11,ZSPAN_M11,X0_M11,X2_M11,X1_M11
2021-09-30 08:00:00,,0833.2,5.00,0.00,28.2,27.5,00.0,37.3,30.1,20.2,0000.0,0008.71,0003.78,0003.34
2021-09-30 08:01:00,,0833.2,5.01,0.00,28.3,27.5,00.0,37.3,30.1,20.1,0000.0,0008.53,0003.77,0003.36
2021-09-30 08:02:00,,0833.1,5.00,0.00,28.3,27.5,00.0,37.3,30.1,20.1,0000.0,0008.70,0003.76,0003.36
2021-09-30 08:03:00,,0833.1,4.99,0.00,28.3,27.5,00.0,37.3,30.1,20.1,0000.0,0008.93,0003.79,0003.36
2021-09-30 08:04:00,,0833.2,5.01,0.00,28.3,27.5,00.0,37.3,30.1,20.1,0000.0,0009.06,0003.83,0003.37
2021-09-30 08:05:00,,0833.3,5.00,0.00,28.3,27.5,00.0,37.3,30.1,20.1,0000.0,0008.99,0003.86,0003.37
2021-09-30 08:06:00,,0833.3,4.99,0.00,28.3,27.5,00.0,37.3,30.1,20.1,0000.0,0008.26,0003.87,0003.36
2021-09-30 08:07:00,,0833.3,5.00,0.00,28.3,27.5,00.0,37.3,30.1,20.0,0000.0,0008.05,0003.88,0003.36
2021-09-30 08:08:00,,0833.3,5.01,0.00,28.3,27.5,00.0,37.3,30.1,20.0,0000.0,0008.06,0003.89,0003.35
2021-09-30 08:09:00,,0833.4,4.99,0.00,28.3,27.5,00.0,37.3,30.1,20.0,0000.0,0008.09,0003.89,0003.35
2021-09-30 08:10:00,,0833.4,5.01,0.00,28.3,27.5,00.0,37.3,30.1,20.0,0000.0,0007.00,0003.86,0003.34
2021-09-30 08:11:00,,0833.5,5.00,0.00,28.3,27.5,00.0,37.3,30.1,20.0,0000.0,0007.27,0003.84,0003.33
2021-09-30 08:12:00,,0833.4,5.00,0.00,28.3,27.5,00.0,37.3,30.1,20.0,0000.0,0007.36,0003.84,0003.32
2021-09-30 08:13:00,,0833.5,4.99,0.00,28.3,27.5,00.0,37.3,30.1,20.1,0000.0,0007.31,0003.84,0003.31
2021-09-30 08:14:00,,0833.5,5.01,0.00,28.3,27.5,00.0,37.3,30.1,20.1,0000.0,0006.90,0003.84,0003.30
2021-09-30 08:15:00,,0833.5,5.00,0.00,28.3,27.5,00.0,37.3,30.1,20.2,0000.0,0006.53,0003.77,0003.29
2021-09-30 08:16:00,,0833.5,5.00,0.00,28.3,27.5,00.0,37.3,30.1,20.2,0000.0,0006.53,0003.75,0003.29
2021-09-30 08:17:00,,0833.5,4.98,0.00,28.3,27.5,00.0,37.3,30.1,20.3,0000.0,0006.69,0003.74,0003.30
2021-09-30 08:18:00,,0833.4,5.02,0.00,28.3,27.5,00.0,37.3,30.1,20.2,0000.0,0006.75,0003.76,0003.31
2021-09-30 08:19:00,,0833.4,4.99,0.00,28.3,27.4,00.0,37.3,30.1,20.1,0000.0,0006.76,0003.74,0003.33
2021-09-30 08:20:00,,0833.5,5.00,0.00,28.3,27.5,00.0,37.3,30.0,20.1,0000.0,0007.32,0003.75,0003.33
2021-09-30 08:21:00,,0833.4,4.99,0.00,28.3,27.5,00.0,37.3,30.0,20.2,0000.0,0007.27,0003.78,0003.34
2021-09-30 08:22:00,,0833.4,5.00,0.00,28.2,27.5,00.0,37.3,30.0,20.3,0000.0,0007.76,0003.83,0003.35
2021-09-30 08:23:00,,0833.3,5.01,0.00,28.2,27.4,00.0,37.3,30.0,20.3,0000.0,0007.75,0003.83,0003.36
2021-09-30 08:24:00,,0833.3,5.00,0.00,28.2,27.4,00.0,37.3,30.0,20.2,0000.0,0007.89,0003.86,0003.37
2021-09-30 08:25:00,,0833.2,4.99,0.00,28.2,27.4,00.0,37.3,30.0,20.2,0000.0,0007.99,0003.87,0003.38
2021-09-30 08:26:00,,0833.1,5.01,0.00,28.2,27.3,00.0,37.3,29.9,20.2,0000.0,0008.05,0003.90,0003.39
2021-09-30 08:27:00,,0833.2,5.01,0.00,28.2,27.3,00.0,37.3,29.9,20.2,0000.0,0008.06,0003.92,0003.39
2021-09-30 08:28:00,,0833.1,5.00,0.00,28.1,27.3,00.0,37.3,29.9,20.2,0000.0,0008.17,0003.94,0003.39
2021-09-30 08:29:00,,0833.1,5.00,0.00,28.1,27.3,00.0,37.3,29.9,20.2,0000.0,0008.29,0003.93,0003.39
2021-09-30 08:30:00,,0833.1,5.00,0.00,28.1,27.3,00.0,37.3,29.9,20.1,0000.0,0008.47,0003.92,0003.38
2021-09-30 08:31:00,,0833.1,4.99,0.00,28.1,27.3,00.0,37.3,29.9,20.1,0000.0,0008.14,0003.89,0003.37
2021-09-30 08:32:00,,0833.1,5.00,0.00,28.1,27.3,00.0,37.3,29.9,20.2,0000.0,0008.20,0003.89,0003.37
2021-09-30 08:33:00,,0833.1,5.01,0.00,28.1,27.3,00.0,37.3,29.9,20.3,0000.0,0007.67,0003.86,0003.36
2021-09-30 08:34:00,,0833.1,4.99,0.00,28.2,27.3,00.0,37.3,30.0,20.2,0000.0,0007.67,0003.84,0003.37
2021-09-30 08:35:00,,0833.1,5.00,0.00,28.2,27.4,00.0,37.3,30.0,20.3,0000.0,0007.61,0003.86,0003.38
2021-09-30 08:36:00,,0833.1,5.01,0.00,28.2,27.4,00.0,37.3,30.0,20.4,0000.0,0007.82,0003.87,0003.38
2021-09-30 08:37:00,,0833.1,4.99,0.00,28.2,27.4,00.0,37.3,30.0,20.3,0000.0,0008.31,0003.89,0003.38
2021-09-30 08:38:00,,0833.1,5.00,0.00,28.2,27.4,00.0,37.3,30.0,20.3,0000.0,0008.24,0003.87,0003.39
2021-09-30 08:39:00,,0833.1,5.00,0.00,28.2,27.4,00.0,37.3,30.0,20.3,0000.0,0008.07,0003.87,0003.39
2021-09-30 08:40:00,,0833.1,5.00,0.00,28.2,27.5,00.0,37.3,30.0,20.3,0000.0,0007.86,0003.88,0003.39
2021-09-30 08:41:00,,0833.1,4.99,0.00,28.2,27.5,00.0,37.3,30.1,20.3,0000.0,0007.75,0003.92,0003.41
2021-09-30 08:42:00,,0833.1,5.00,0.00,28.2,27.5,00.0,37.3,30.1,20.2,0000.0,0008.04,0003.95,0003.43
2021-09-30 08:43:00,,0833.1,5.00,0.00,28.2,27.5,00.0,37.3,30.0,20.2,0000.0,0008.11,0003.98,0003.46
2021-09-30 08:44:00,,0833.1,5.00,0.00,28.2,27.4,00.0,37.3,30.0,20.2,0000.0,0008.12,0004.00,0003.48
2021-09-30 08:45:00,,0833.1,4.99,0.00,28.2,27.4,00.0,37.3,30.0,20.4,0000.0,0008.05,0004.01,0003.49
2021-09-30 08:46:00,,0833.1,5.00,0.00,28.2,27.4,00.0,37.3,30.0,20.4,0000.0,0008.03,0003.99,0003.50
2021-09-30 08:47:00,,0833.1,5.00,0.00,28.2,27.4,00.0,37.3,29.9,20.4,0000.0,0007.85,0004.01,0003.51
2021-09-30 08:48:00,,0833.1,5.02,0.00,28.1,27.4,00.0,37.3,29.9,20.4,0000.0,0007.45,0004.03,0003.53
2021-09-30 08:49:00,,0833.0,4.99,0.00,28.1,27.3,00.0,37.3,29.9,20.5,0000.0,0007.56,0004.06,0003.55
2021-09-30 08:50:00,,0833.0,5.00,0.00,28.1,27.3,00.0,37.3,30.0,20.5,0000.0,0007.59,0004.07,0003.57
2021-09-30 08:51:00,,0832.9,5.00,0.00,28.1,27.3,00.0,37.3,29.9,20.5,0000.0,0007.73,0004.10,0003.59
2021-09-30 08:52:00,,0832.9,5.00,0.00,28.1,27.3,00.0,37.3,29.9,20.6,0000.0,0007.98,0004.11,0003.61
2021-09-30 08:53:00,,0832.9,5.00,0.00,28.1,27.3,00.0,37.3,29.9,20.5,0000.0,0007.81,0004.14,0003.62
2021-09-30 08:54:00,,0832.9,5.00,0.00,28.1,27.3,00.0,37.2,29.9,20.5,0000.0,0007.66,0004.12,0003.62
2021-09-30 08:55:00,,0833.0,5.00,0.00,28.1,27.3,00.0,37.2,29.9,20.5,0000.0,0007.57,0004.09,0003.63
2021-09-30 08:56:00,,0833.0,5.00,0.00,28.1,27.3,00.0,37.2,29.8,20.6,0000.0,0007.62,0004.12,0003.64
2021-09-30 08:57:00,,0833.1,5.00,0.00,28.0,27.2,00.0,37.2,29.8,20.6,0000.0,0007.54,0004.12,0003.65
2021-09-30 08:58:00,,0833.1,5.00,0.00,28.0,27.2,00.0,37.2,29.8,20.6,0000.0,0007.42,0004.11,0003.65
2021-09-30 08:59:00,,0833.0,5.01,0.00,28.0,27.2,00.0,37.2,29.8,20.7,0000.0,0007.46,0004.14,0003.66
